STARLINK-11290, 61000

Orbit data source: Space-Track

STARLINK-11290, 61000 is a payload satellite owned by SpaceX/Seattle (US) in LEO that was launched on Thu, 05 Sep 2024 UTC via an FALCON 9 launch vehicle from the Air Force Eastern Test Range (AFETR). Payload-class satellites include a variety of spacecraft equipped with specific instruments for various scientific and technological missions. These include communications satellites like Starlink; space stations such as the ISS; scientific satellites like the Hubble; Earth observation satellites from companies like Planet Labs, Umbra, and HawkEye 360; GPS; miniature CubeSats for education and research; and military/defense satellites.

Loading next visibility...
Identifier
61000, 2024-158L
Orbit
LEO
Country
Flag of USUS
Related business
Manufacturer
SpaceX/Seattle
Mission
Operational Commercial Communications
Bus & Motor
STARLINK V2MD, Unknown motor
Mass
960 kg wet, ~910 kg dry
Launch date (UTC)
2024-09-05 (2 years ago)
Launch vehicle
FALCON 9
Launch site
Air Force Eastern Test Range (AFETR)
Object type
Payload
Rocket body
Debris
Shape & HBR
Box + 2 Pan, 18.1 m
Radar Cross Section
36.964 m², Large (>1 m²)

Expand to show TLE details & history
Last TLE update: 14 hours ago

TLE from 14 hours ago
0 STARLINK-11290
1 61000U 24158L   26171.31971326 -.00001595  00000-0 -83104-5 0  9999
2 61000  53.1588 135.3476 0001308  87.7067 272.4101 15.69692358103774
Epoch: 2026-06-20T07:40Z
TLE epoch observation values (Epoch: 2026-06-20T07:40:23.225Z)
Latitude
-0°
Longitude
111.71479°
Altitude
360.655 km
Speed
7.694 km/s
True Right ascension
09h 01m 23s
True Declination
0° 00' 00"
Sunlit
Object was in daylight at epoch
Visualization orbit readout
Latitude
Unknown
Longitude
Unknown
Altitude
Unknown
Speed
Unknown
Apparent Right ascension
Unknown
Apparent Declination
Unknown
Sunlit
N/A
Visualization observer readout
Local Sidereal Time
08:43:00
Azimuth
Unknown
Elevation
Unknown
Doppler factor
Unknown
Orbital elements
Apogee altitude
360.919 km
Perigee altitude
359.157 km
Semi-major axis
6,738.175 km
Eccentricity
0.00013
Inclination
53.1588°
RAAN
135.3476°
Arg. of periapsis
87.7067°
True anomaly
272.39512°
Mean anomaly
272.4101°
Eccentric anomaly
272.40261°
Mean motion
3.92401 °/min
Orbital period
91.74 mins
BSTAR
-0.0000083104
Loading maneuver chart data...
Computing Atmospheric mass density...
Loading historical data...
Loading historical data...
Loading historical data...
Loading historical data...
Loading historical data...
Loading historical data...
Loading historical data...

Documentation

Showing up to 5 results
|